Location: Caltech
(34.1382°N, 118.1253°W)
Time: 10:37:50
(UTC-08:00)

SEDSat Delta rocket - Visible Passes

Search period start: 20 January 2018 00:00
Search period end: 30 January 2018 00:00
Orbit: 533 x 1002 km, 31.4° (Epoch: 19 January)

Date Brightness Start Highest point End Pass type
(mag) Time Alt. Az. Time Alt. Az. Time Alt. Az.
20 Jan 3.9 19:05:46 10° WSW 19:12:21 68° S 19:13:32 55° ESE visible
20 Jan 6.3 20:52:35 10° W 20:53:41 15° W 20:53:41 15° W visible
21 Jan 4.1 18:24:54 10° WSW 18:31:35 66° S 18:35:22 25° E visible
21 Jan 5.1 20:11:40 10° W 20:15:31 36° WSW 20:15:31 36° WSW visible
22 Jan 4.3 17:44:05 10° WSW 17:50:48 64° S 17:57:10 10° E visible
22 Jan 3.9 19:30:46 10° W 19:37:22 68° S 19:37:22 68° S visible
23 Jan 4.1 18:49:53 10° W 18:56:36 70° S 18:59:13 37° ESE visible
23 Jan 5.9 20:36:49 10° W 20:39:22 23° WSW 20:39:22 23° WSW visible
24 Jan 4.2 18:09:02 10° W 18:15:49 71° S 18:21:08 16° E visible
24 Jan 4.7 19:55:53 10° W 20:01:17 46° SW 20:01:17 46° SW visible
25 Jan 4.4 19:14:58 10° W 19:21:33 55° SSW 19:23:15 43° SSE visible
25 Jan 6.5 21:02:27 10° W 21:03:23 13° WSW 21:03:23 13° WSW visible
26 Jan 4.4 18:34:07 10° W 18:40:47 59° SSW 18:45:18 20° ESE visible
26 Jan 5.6 20:21:21 10° W 20:25:26 26° SW 20:25:26 26° SW visible
27 Jan 4.5 17:53:17 10° W 17:59:59 63° S 18:06:33 10° ESE visible
27 Jan 5.1 19:40:19 10° W 19:46:16 33° SSW 19:47:35 31° S visible
28 Jan 5.1 18:59:22 10° W 19:05:33 38° SSW 19:09:49 18° SE visible
28 Jan 6.4 20:48:28 10° WSW 20:49:59 12° SW 20:49:59 12° SW visible
29 Jan 5.1 18:18:30 10° W 18:24:49 42° SSW 18:31:02 10° SE visible
29 Jan 6.1 20:06:49 10° WSW 20:10:43 16° SSW 20:12:22 15° SSW visible
